Terug naar catalogus

KUIPER-00246

ActiefCommunicatieLEO
NORAD 67151·PAYLOAD·🇺🇸 United States

Gelanceerd Dec 15, 2025 vanaf Cape Canaveral Space Force Station

Loading…

Volgende Passages (komende 24 uur)

TLE

VersSource: CelesTrak SupGP

Epoch: Sep 14, 2026, 15:36 UTC

1 67151C 25301U   26257.65008102  .00007124  00000+0  93275-3 0  2574
2 67151  51.8999 312.5316 0000433  82.8293 158.7070 14.79914951    15

Volg KUIPER-00246 in realtime met AllMySat

Download on the App Store